[[{"header":{"parameterUnit":"m.s-1","parameterCategory":1,"la1":30.2991,"la2":30.254,"lo1":-89.0895,"lo2":-89.0444,"dy":0.0017,"dx":0.0017,"nx":28,"ny":28,"refTime":"2025-12-16T03:00:00:Z","depth":0,"parameterNumber":2,"parameterNumberName":"U-component_of_WINDS"},"data":[0,0,0,0,0,0,0,0,0,0,0,0,0,0,0,0,0,0,0,0,0,0,0,0,0,0,0,0,0,0,0,0,0,0,0,0,0,0,0,0,0,0,0,0,0,0,0,0,0,0,0,0,0,0,0,0,0,0,-2.2786,-2.2787,0,-2.2901,-2.2902,-2.2904,-2.2926,-2.2925,-2.2924,-2.2923,-2.3043,-2.3047,-2.3051,0,0,0,0,0,0,0,0,0,0,0,0,0,-2.2587,-2.259,-2.2786,-2.2787,-2.2789,-2.2901,-2.2903,-2.2904,-2.2926,-2.2925,-2.2924,-2.2923,-2.3042,-2.3046,-2.3051,0,0,0,0,0,0,0,0,0,0,0,0,0,-2.2685,-2.2592,-2.2785,-2.2813,-2.2817,-2.2901,-2.2903,-2.2905,-2.2926,-2.2925,-2.2923,-2.2922,-2.304,-2.3046,-2.3052,-2.3117,0,0,-2.307,-2.3073,0,0,0,0,0,0,0,0,-2.2679,-2.2692,-2.2808,-2.2811,-2.2815,-2.2898,-2.2876,-2.2976,-2.2926,-2.2885,-2.2923,-2.2921,-2.2996,-2.3005,-2.303,-2.3123,-2.3128,-2.3071,-2.3075,-2.3077,-2.3079,0,0,0,0,0,0,0,-2.2672,-2.2687,-2.2831,-2.2809,-2.2814,-2.282,-2.2833,-2.2895,-2.2947,-2.2888,-2.289,-2.2903,-2.2998,-2.3024,-2.3033,-2.313,-2.3071,-2.3076,-2.308,-2.3082,-2.3282,-2.3284,0,0,0,0,0,0,-2.266,-2.2681,-2.2828,-2.2835,-2.2742,-2.2825,-2.2839,-2.2873,-2.2946,-2.2956,-2.2904,-2.2904,-2.3015,-2.3026,-2.3037,-2.3118,-2.3077,-2.3083,-2.3086,-2.328,-2.3282,-2.3284,0,0,0,0,0,0,-2.2656,-2.2673,-2.2823,-2.2759,-2.2778,-2.283,-2.2868,-2.2876,-2.2902,-2.2958,-2.2968,-2.2922,-2.3014,-2.3029,-2.3097,-2.3123,-2.3086,-2.3091,-2.3279,-2.3281,-2.3283,-2.328,0,0,0,0,0,0,-2.265,-2.2672,-2.2696,-2.2759,-2.2782,-2.288,-2.2869,-2.2879,-2.2912,-2.2913,-2.2977,-2.2986,-2.3014,-2.3088,-2.3103,-2.313,-2.3096,-2.3276,-2.328,-2.3283,-2.3278,-2.3282,-2.3286,0,0,0,0,0,-2.2643,-2.2691,-2.2697,-2.2715,-2.2813,-2.2881,-2.2894,-2.2924,-2.2914,-2.294,-2.2976,-2.2984,-2.3118,-2.3095,-2.3112,-2.3141,-2.3275,-2.3279,-2.3282,-2.3277,-2.3282,-2.3286,0,0,0,0,0,0,-2.263,-2.27,-2.2707,-2.2777,-2.2823,-2.2885,-2.2918,-2.2929,-2.2979,-2.2977,-2.3014,-2.3028,-2.3094,-2.3125,-2.3098,-2.3209,-2.3196,-2.3203,-2.3186,-2.3191,-2.3195,-2.3185,-2.3101,0,0,0,0,0,-2.2636,-2.2684,-2.2743,-2.2799,-2.2821,-2.2866,-2.2897,-2.2916,-2.2965,-2.2985,-2.3026,-2.3074,-2.3127,-2.3161,-2.3213,-2.3284,-2.3298,-2.3313,-2.3317,-2.3319,-2.3325,-2.3365,-2.3372,-2.3297,-2.3296,-2.3296,0,0,-2.2647,-2.2691,-2.272,-2.2797,-2.2835,-2.2885,-2.2882,-2.2935,-2.2973,-2.2993,-2.3059,-2.3092,-2.3148,-2.3218,-2.3251,-2.3246,-2.3349,-2.3324,-2.3326,-2.333,-2.3369,-2.3376,-2.3382,-2.3299,-2.3299,-2.3298,0,0,-2.2693,-2.2731,-2.2782,-2.282,-2.2877,-2.2907,-2.2919,-2.2979,-2.3001,-2.3069,-2.3085,-2.3131,-2.3221,-2.3261,-2.3292,-2.3355,-2.3364,-2.3371,-2.339,-2.3428,-2.3434,-2.3439,-2.3461,-2.3468,-2.3376,-2.3376,-2.3376,0,-2.27,-2.2775,-2.2807,-2.2859,-2.2893,-2.2914,-2.2965,-2.3001,-2.3073,-2.3096,-2.3089,-2.3203,-2.3243,-2.3322,-2.3337,-2.3363,-2.3378,-2.3363,-2.343,-2.3436,-2.3442,-2.3463,-2.3471,-2.3377,-2.3377,-2.3377,-2.3377,0,-2.278,-2.2833,-2.2867,-2.2934,-2.2972,-2.3024,-2.3064,-2.3099,-2.3116,-2.3146,-2.3215,-2.3263,-2.3325,-2.3346,-2.3363,-2.3428,-2.3423,-2.3423,-2.341,-2.3449,-2.3469,-2.3477,-2.3377,-2.3377,-2.3377,-2.3377,0,0,-2.282,-2.2905,-2.2917,-2.2948,-2.3013,-2.3054,-2.3108,-2.3168,-2.3197,-2.3246,-2.3292,-2.3368,-2.3369,-2.3405,-2.3427,-2.3461,-2.3506,-2.3458,-2.3459,-2.3464,-2.3581,-2.3579,-2.3587,-2.3514,-2.3516,-2.3517,-2.3575,0,-2.2873,-2.2967,-2.2997,-2.3076,-2.3125,-2.3146,-2.3193,-2.3239,-2.3269,-2.3315,-2.3349,-2.3402,-2.34,-2.3422,-2.3456,-2.3493,-2.353,-2.349,-2.3557,-2.3559,-2.354,-2.3598,-2.3596,-2.3649,-2.3584,-2.3585,-2.3586,0,-2.2946,-2.2996,-2.3079,-2.3138,-2.316,-2.3201,-2.3259,-2.3303,-2.3356,-2.3375,-2.3416,-2.3436,-2.3493,-2.3478,-2.3558,-2.353,-2.356,-2.3582,-2.3585,-2.3591,-2.3573,-2.3604,-2.3666,-2.3673,-2.3599,-2.3598,-2.3597,0,-2.2965,-2.3053,-2.3114,-2.314,-2.3211,-2.324,-2.3271,-2.3322,-2.3356,-2.3407,-2.343,-2.3487,-2.3518,-2.3563,-2.3597,-2.3584,-2.3674,-2.3663,-2.3692,-2.3691,-2.3708,-2.3707,-2.3774,-2.373,-2.373,-2.373,-2.373,0,-2.302,-2.307,-2.3124,-2.3161,-2.3218,-2.3254,-2.3309,-2.3342,-2.3387,-2.3432,-2.3455,-2.3497,-2.3541,-2.3589,-2.3617,-2.3678,-2.3693,-2.371,-2.3717,-2.3707,-2.3705,-2.3726,-2.3723,-2.3732,-2.3731,-2.3731,-2.3731,0,-2.305,-2.3088,-2.3156,-2.3218,-2.3234,-2.3274,-2.3327,-2.3365,-2.3396,-2.3453,-2.3468,-2.3518,-2.3576,-2.3615,-2.369,-2.3708,-2.3775,-2.3781,-2.3756,-2.3759,-2.3786,-2.3782,-2.3869,-2.3881,-2.3829,-2.383,-2.383,0,-2.3081,-2.312,-2.3186,-2.3217,-2.3248,-2.3298,-2.3333,-2.337,-2.3406,-2.3469,-2.3499,-2.3558,-2.3607,-2.3699,-2.3742,-2.3799,-2.3807,-2.3833,-2.3815,-2.3805,-2.3806,-2.3802,-2.3806,-2.3835,-2.3835,-2.3836,-2.3836,0,-2.3133,-2.315,-2.3199,-2.3255,-2.3296,-2.3342,-2.3388,-2.3412,-2.3458,-2.3497,-2.3555,-2.3593,-2.3669,-2.3727,-2.3789,-2.3822,-2.3837,-2.3842,-2.3851,-2.3841,-2.3824,-2.3833,-2.3762,-2.3839,-2.3839,-2.3838,-2.3838,-2.3838,-2.3165,-2.32,-2.3252,-2.3305,-2.3344,-2.3387,-2.3425,-2.3461,-2.3511,-2.3574,-2.3594,-2.3655,-2.3708,-2.3791,-2.3825,-2.3874,-2.3872,-2.3886,-2.389,-2.3892,-2.3891,-2.3818,-2.3886,-2.3886,-2.3886,-2.3886,-2.3886,0,-2.3217,-2.3251,-2.33,-2.3364,-2.3406,-2.3416,-2.3468,-2.3503,-2.3556,-2.3604,-2.3651,-2.3719,-2.3776,-2.3824,-2.3883,-2.3913,-2.3922,-2.3928,-2.3925,-2.3932,-2.3891,-2.3876,-2.392,-2.392,-2.392,-2.392,-2.392,-2.392,-2.3249,-2.3309,-2.3332,-2.3412,-2.3446,-2.3505,-2.3534,-2.3574,-2.3612,-2.3686,-2.3733,-2.3764,-2.3812,-2.3875,-2.3928,-2.3941,-2.3961,-2.3965,-2.398,-2.3939,-2.3935,-2.3931,-2.3918,-2.397,-2.397,-2.4017,-2.4018,-2.4018]},{"header":{"parameterUnit":"m.s-1","parameterCategory":1,"la1":30.2991,"la2":30.254,"lo1":-89.0895,"lo2":-89.0444,"dy":0.0017,"dx":0.0017,"nx":28,"ny":28,"refTime":"2025-12-16T03:00:00:Z","depth":0,"parameterNumber":3,"parameterNumberName":"V-component_of_WINDS"},"data":[0,0,0,0,0,0,0,0,0,0,0,0,0,0,0,0,0,0,0,0,0,0,0,0,0,0,0,0,0,0,0,0,0,0,0,0,0,0,0,0,0,0,0,0,0,0,0,0,0,0,0,0,0,0,0,0,0,0,1.2892,1.2893,0,1.2972,1.2973,1.2974,1.2969,1.2968,1.2967,1.2966,1.3043,1.3046,1.3049,0,0,0,0,0,0,0,0,0,0,0,0,0,1.2731,1.2734,1.2892,1.2893,1.2894,1.2972,1.2973,1.2974,1.2969,1.2968,1.2966,1.2965,1.3042,1.3046,1.3049,0,0,0,0,0,0,0,0,0,0,0,0,0,1.2805,1.2735,1.2892,1.2901,1.2903,1.2972,1.2973,1.2974,1.2969,1.2968,1.2966,1.2964,1.3041,1.3045,1.305,1.3113,0,0,1.3064,1.3066,0,0,0,0,0,0,0,0,1.2801,1.2811,1.2899,1.29,1.2902,1.2959,1.2944,1.3021,1.297,1.2944,1.2966,1.2964,1.3016,1.3023,1.3041,1.3117,1.312,1.3065,1.3067,1.3069,1.3071,0,0,0,0,0,0,0,1.2796,1.2807,1.2923,1.29,1.2902,1.29,1.2908,1.2959,1.2988,1.2946,1.2946,1.2956,1.3017,1.3037,1.3043,1.3121,1.3064,1.3069,1.3071,1.3073,1.3254,1.3255,0,0,0,0,0,0,1.2789,1.2803,1.2921,1.2926,1.2846,1.2904,1.2914,1.2942,1.2988,1.2993,1.2957,1.2955,1.303,1.3037,1.3046,1.3123,1.3069,1.3074,1.3076,1.3252,1.3254,1.3256,0,0,0,0,0,0,1.2786,1.28,1.2918,1.2864,1.2879,1.2909,1.2941,1.2945,1.2965,1.2996,1.3001,1.2972,1.3028,1.3039,1.3097,1.3126,1.3076,1.308,1.3249,1.3252,1.3255,1.3279,0,0,0,0,0,0,1.2781,1.2798,1.2823,1.2865,1.2882,1.2969,1.2943,1.2948,1.2974,1.2972,1.3012,1.3017,1.3028,1.309,1.3102,1.3132,1.3084,1.3247,1.3251,1.3254,1.3276,1.3283,1.3288,0,0,0,0,0,1.2775,1.2826,1.2825,1.2839,1.2915,1.297,1.298,1.2993,1.2976,1.3001,1.3021,1.3016,1.3121,1.3096,1.3109,1.3141,1.3245,1.325,1.3254,1.3273,1.3281,1.3288,0,0,0,0,0,0,1.2785,1.2831,1.2831,1.2897,1.293,1.2969,1.3001,1.3001,1.3038,1.3035,1.3048,1.3057,1.3115,1.3134,1.3105,1.3205,1.3181,1.3188,1.3191,1.3199,1.3205,1.3199,1.3088,0,0,0,0,0,1.2795,1.2838,1.2876,1.293,1.2947,1.2971,1.2996,1.3004,1.3038,1.3051,1.3076,1.3108,1.3148,1.3175,1.3213,1.3279,1.3287,1.3307,1.3313,1.3318,1.3324,1.336,1.337,1.3271,1.3271,1.3271,0,0,1.2815,1.2846,1.2872,1.2933,1.2959,1.3002,1.2983,1.3029,1.3061,1.3058,1.3115,1.3134,1.317,1.3233,1.3261,1.325,1.3353,1.3324,1.3328,1.3331,1.3366,1.3375,1.3383,1.3274,1.3273,1.3273,0,0,1.2875,1.2903,1.2952,1.298,1.3021,1.3037,1.3049,1.3089,1.3102,1.316,1.3159,1.3196,1.3265,1.3292,1.3314,1.3386,1.3382,1.3398,1.343,1.3466,1.3473,1.348,1.3506,1.3515,1.3404,1.3404,1.3404,0,1.2895,1.2961,1.2976,1.3024,1.305,1.3052,1.3101,1.3126,1.3177,1.3195,1.3182,1.327,1.3295,1.3363,1.3381,1.3399,1.3413,1.3393,1.3471,1.3478,1.3485,1.351,1.3519,1.3406,1.3406,1.3406,1.3405,0,1.2984,1.303,1.3064,1.3116,1.3147,1.3194,1.3216,1.3244,1.325,1.3267,1.3325,1.3356,1.3401,1.3418,1.3422,1.3487,1.3479,1.3469,1.3444,1.3496,1.3519,1.3529,1.3408,1.3408,1.3407,1.3407,0,0,1.3051,1.3112,1.3124,1.3148,1.3194,1.323,1.3277,1.3324,1.3348,1.3384,1.3423,1.3483,1.3474,1.35,1.3507,1.3538,1.3593,1.3524,1.3525,1.3536,1.3667,1.3674,1.3685,1.3591,1.3593,1.3595,1.3664,0,1.3115,1.3202,1.3218,1.3293,1.3335,1.3338,1.3379,1.3412,1.3429,1.3467,1.3486,1.3528,1.3513,1.3529,1.356,1.358,1.362,1.3575,1.3628,1.3629,1.3618,1.3697,1.3705,1.3769,1.3673,1.3675,1.3676,0,1.3202,1.3242,1.3322,1.3364,1.3382,1.342,1.3464,1.35,1.3537,1.3548,1.3577,1.3582,1.363,1.3605,1.3672,1.3641,1.3664,1.3677,1.368,1.3685,1.3655,1.3704,1.3789,1.3799,1.369,1.3689,1.3688,0,1.3243,1.3317,1.3375,1.3395,1.3445,1.3471,1.3493,1.3528,1.3555,1.3593,1.3611,1.3654,1.3677,1.3709,1.3725,1.3705,1.3791,1.3766,1.38,1.38,1.3818,1.3816,1.3908,1.3833,1.3832,1.3832,1.3832,0,1.3313,1.3362,1.3394,1.3429,1.3484,1.3501,1.3554,1.3575,1.3607,1.3645,1.3649,1.3685,1.3704,1.3742,1.3755,1.3808,1.3818,1.3828,1.383,1.3828,1.3826,1.3842,1.3838,1.3835,1.3834,1.3834,1.3833,0,1.3368,1.3391,1.3455,1.3498,1.351,1.3548,1.3584,1.3618,1.3636,1.3685,1.3698,1.3726,1.3771,1.379,1.3845,1.3854,1.3916,1.3915,1.3904,1.3905,1.3938,1.3934,1.4042,1.4057,1.3972,1.3973,1.3973,0,1.3411,1.345,1.3497,1.3525,1.3548,1.3591,1.362,1.3638,1.3667,1.3713,1.3741,1.3787,1.3825,1.3898,1.3922,1.3964,1.3964,1.3999,1.3971,1.3967,1.3965,1.3963,1.3966,1.4004,1.4005,1.4006,1.4006,0,1.3486,1.3496,1.3538,1.3584,1.3619,1.3655,1.3691,1.3713,1.3736,1.3769,1.3817,1.3846,1.3904,1.3949,1.3994,1.4014,1.4014,1.4016,1.4026,1.4023,1.4015,1.402,1.3918,1.4013,1.4012,1.4012,1.4011,1.4011,1.3537,1.3571,1.361,1.3657,1.3686,1.372,1.3755,1.3778,1.3819,1.3868,1.3876,1.3927,1.3963,1.4023,1.4046,1.4085,1.4076,1.409,1.4094,1.4097,1.41,1.4009,1.4093,1.4093,1.4093,1.4092,1.4092,0,1.3611,1.3638,1.368,1.3732,1.3768,1.3767,1.3807,1.3837,1.3882,1.3917,1.3955,1.401,1.4054,1.4083,1.4127,1.4153,1.4154,1.4164,1.4162,1.4167,1.4105,1.4092,1.4163,1.4163,1.4163,1.4163,1.4163,1.4163,1.3655,1.3713,1.3728,1.38,1.3826,1.3877,1.39,1.3931,1.3959,1.4021,1.4059,1.4078,1.4109,1.4157,1.4197,1.4204,1.422,1.4231,1.4237,1.4179,1.4171,1.4164,1.4152,1.4234,1.4234,1.4296,1.4297,1.4297]}]]